SCP
1 1 1 1 1 1 0 0 0 0 0 0 0 0 1 1 1 1 1 1 1 1 1 1 1 1 1 1 1 1 1 1 1 1 1 1 0 0 0 0 0 0 0
0 0 0 1 1 1 0 0 0 0 0 0 0 0 1 1 1 1 1 1 1 1 1 1 1 1 1 1 1 1 1 1 1 1 1 0 0 0 0 0 0 0 0
0 0 0 1 1 1 1 0 0 0 0 0 1 1 1 1 1 1 1 1 1 1 1 1 1 1 1 1 1 1 1 1 1 1 0 0 0 0 0 0 0 0 0
0 0 0 0 1 1 1 0 0 0 0 1 1 1 1 1 1 1 1 1 1 1 1 1 1 1 1 1 1 1 1 1 1 0 0 0 0 0 0 0 0 0 0
0 0 0 1 1 1 1 0 0 0 0 0 1 1 1 1 1 1 1 1 1 1 1 1 1 1 1 1 1 1 1 1 1 0 0 0 0 0 0 0 0 0 0
0 0 0 0 1 1 1 1 0 0 0 0 1 1 1 1 2 2 1 1 1 1 1 1 1 1 1 1 1 0 0 0 0 0 0 0 0 0 0 0 0 0 0
0 0 0 0 0 1 1 1 0 0 0 0 0 1 1 1 2 2 1 1 1 1 1 1 1 1 1 1 0 0 0 0 0 0 0 0 0 0 0 0 0 0 0
0 0 0 0 0 0 1 1 0 0 0 0 0 0 1 1 2 1 1 1 1 0 0 0 0 0 1 1 1 0 0 0 0 0 0 0 0 0 0 0 0 0 0
0 0 0 0 0 0 0 1 1 0 0 1 0 0 0 1 1 1 1 1 0 0 0 0 0 0 1 1 1 1 0 0 0 0 0 0 0 0 0 0 0 0 0
0 0 0 0 0 0 0 0 0 0 1 1 0 0 0 0 1 1 1 0 0 0 0 0 0 0 0 1 1 0 0 0 0 0 0 0 0 0 0 0 0 0 0
0 0 0 0 0 0 0 0 0 0 0 0 0 0 0 0 0 0 0 0 0 0 0 0 0 0 0 0 0 0 0 0 0 0 0 0 0 0 0 0 0 0 0
0 0 0 0 0 0 0 0 0 0 0 0 0 0 0 0 0 0 0 0 0 0 0 0 0 0 0 0 0 0 0 0 0 0 0 0 0 0 0 0 0 0 0
1 1 0 0 0 0 0 0 0 0 0 0 0 0 0 0 0 0 0 0 0 0 0 0 0 0 0 0 0 0 0 0 0 0 0 0 0 0 0 0 0 0 0
1 1 0 0 0 0 0 0 0 0 0 0 0 0 0 0 0 0 0 0 0 0 0 0 0 0 0 0 0 0 0 0 0 0 0 0 0 1 0 0 0 0 0
0 0 0 0 0 0 0 0 0 0 0 0 0 0 0 0 0 0 0 0 0 0 0 0 0 0 0 0 0 0 0 0 0 0 0 0 0 0 0 0 0 0 0
0 0 0 0 0 0 0 0 0 0 0 0 0 0 0 0 0 0 0 0 0 0 0 0 0 0 0 0 0 0 0 0 0 0 0 0 0 0 0 0 0 0 0
1 1 0 0 0 0 0 0 0 0 0 0 0 0 0 0 0 0 0 0 0 0 0 0 0 0 0 0 0 0 0 0 0 0 0 0 0 0 1 1 1 0 0
1 1 0 0 0 1 1 1 1 0 0 0 0 0 0 0 0 0 0 0 0 0 0 0 0 0 0 0 0 0 0 0 0 0 0 0 0 0 1 1 1 1 1
1 1 1 1 1 1 1 1 1 1 0 0 0 0 0 0 0 0 0 0 0 0 0 0 0 0 0 0 0 0 0 0 0 0 0 0 0 0 0 1 1 1 1
1 1 1 1 1 1 1 1 1 1 0 0 0 0 0 0 0 0 0 0 0 0 0 0 0 0 0 0 0 0 0 0 0 0 0 0 0 0 0 0 1 1 1
2 2 2 2 1 1 1 1 1 1 1 0 0 0 0 0 0 0 0 0 0 0 0 0 0 0 0 0 0 0 0 0 0 0 0 0 0 0 0 0 0 1 1
2 2 2 2 1 1 1 1 1 1 0 0 0 0 0 0 0 0 0 0 0 0 0 0 0 0 0 0 0 0 0 0 0 0 0 0 0 0 0 0 0 0 0
2 2 2 1 1 1 1 1 1 1 1 0 1 1 0 0 0 0 0 0 0 0 0 0 0 0 0 0 0 0 0 0 0 0 0 0 0 0 0 0 0 0 0
1 1 1 2 2 2 1 1 1 1 1 1 1 1 0 0 0 0 0 0 0 0 0 0 0 0 0 0 0 0 0 0 0 0 0 0 0 0 0 0 0 0 0
2 2 2 2 2 2 2 1 1 1 1 1 1 1 0 0 0 0 0 0 0 0 0 0 0 0 0 0 0 0 0 0 0 0 0 0 0 0 0 0 0 0 0
2 2 2 2 2 2 2 2 2 1 1 1 0 0 0 0 0 0 0 0 0 0 0 0 0 0 0 0 0 0 0 0 0 0 0 0 0 0 0 0 0 0 0
Wind_Speed
1 1 5 8 9 10 11 12 12 13 13 14 14 15 15 16 16 16 16 16 17 17 17 17 17 17 18 17 17 17 17 17 16 17 17 16 16 16 16 16 15 12 16
2 2 6 8 9 10 10 11 12 12 13 14 14 15 15 15 16 16 16 17 17 17 17 17 17 17 17 17 17 17 16 16 16 16 16 15 16 15 15 15 14 11 16
3 2 5 7 9 9 10 11 12 12 12 13 14 14 14 15 15 16 16 16 16 17 17 17 17 17 16 16 16 16 16 16 16 16 14 9 11 15 15 15 15 15 15
4 2 4 8 8 9 9 10 11 12 12 12 13 13 14 14 14 15 15 16 16 16 16 16 16 16 15 15 15 15 15 15 15 14 8 7 8 13 14 14 14 14 14
3 2 3 8 8 9 9 10 10 11 11 12 12 12 13 13 14 14 14 15 15 15 15 15 15 14 14 14 13 13 13 13 13 11 7 6 6 12 13 13 13 14 13
3 2 3 8 8 8 9 9 9 10 10 11 11 11 11 12 12 13 13 13 14 14 14 14 14 13 13 13 12 12 12 12 11 8 7 6 6 11 13 13 13 13 12
3 2 3 8 8 8 8 8 9 9 10 10 10 10 10 10 11 11 12 12 12 13 13 13 12 12 12 11 11 11 12 12 8 7 6 6 6 10 12 12 12 12 12
3 2 2 6 7 7 7 8 8 8 9 9 9 9 9 9 9 9 10 10 11 11 11 11 11 10 10 10 9 10 11 11 9 7 6 5 8 10 11 11 11 11 11
3 2 2 2 3 5 6 7 7 7 7 7 8 8 8 8 8 8 8 9 9 9 9 9 9 9 9 8 8 9 9 10 7 5 6 4 8 10 11 10 10 10 10
2 2 2 2 2 2 2 5 6 6 6 6 6 7 7 7 6 6 6 6 7 7 7 7 7 8 8 7 8 8 9 9 6 5 4 5 9 10 10 10 10 9 9
2 1 1 1 1 1 1 2 3 4 4 4 4 5 5 3 3 3 3 4 5 5 5 6 6 6 6 6 6 8 8 3 5 4 3 7 9 10 10 10 9 9 9
4 2 1 1 1 1 0 2 2 2 2 2 2 3 2 2 2 2 2 3 4 4 4 4 5 5 5 3 4 5 3 4 4 3 4 8 9 9 9 9 9 9 9
4 3 3 2 2 1 0 1 1 1 1 1 1 1 1 1 2 2 2 2 2 3 2 3 3 2 2 2 2 2 3 3 3 3 4 8 9 9 9 9 9 9 9
4 4 3 3 2 2 1 1 1 1 1 0 0 1 1 1 1 1 1 1 1 1 1 1 1 2 2 2 2 3 4 3 3 2 4 8 8 9 9 9 9 9 9
5 5 4 4 3 2 2 1 1 1 1 1 0 1 1 1 0 0 0 0 0 0 1 1 1 1 1 1 1 3 4 4 4 4 3 8 9 9 9 10 10 10 9
6 5 4 4 4 3 2 2 1 1 1 1 1 1 2 2 1 1 0 0 1 0 0 0 0 0 0 0 1 2 3 4 4 4 4 5 9 9 9 10 10 10 10
6 5 5 5 4 3 3 2 1 1 1 1 1 1 2 2 2 2 1 1 1 1 1 0 0 0 0 0 0 1 2 3 4 4 4 4 4 8 10 10 10 10 11
5 5 5 5 5 4 3 2 1 1 1 1 1 1 2 2 2 2 1 1 1 0 1 1 0 0 0 0 0 0 1 2 3 3 4 4 3 4 7 10 10 10 11
6 5 4 4 5 4 3 2 1 1 1 1 1 1 1 2 3 2 2 1 1 0 1 1 1 1 0 0 0 0 1 1 2 2 3 4 4 4 4 5 8 8 10
5 4 4 3 4 3 2 2 1 1 0 0 1 1 1 1 2 2 1 1 1 1 0 1 1 1 1 0 0 1 0 0 1 1 3 2 2 4 4 4 4 5 7
4 4 4 4 3 3 2 2 1 1 0 0 1 1 1 2 2 2 1 1 1 1 1 1 1 1 1 1 1 1 1 0 0 1 1 1 1 2 2 3 3 2 3
5 5 4 4 4 3 2 2 2 2 1 1 0 0 1 1 1 2 2 1 1 1 1 1 1 1 1 1 2 1 0 1 1 0 0 0 1 1 1 0 1 1 1
7 7 6 5 4 3 3 2 2 2 1 1 1 1 1 0 1 1 1 1 1 1 1 2 2 2 2 1 1 2 2 2 1 1 1 1 2 2 1 1 1 1 0
8 6 5 5 4 3 4 3 3 2 2 1 1 0 1 1 0 0 1 1 1 1 1 2 2 2 2 2 1 1 1 2 2 0 1 2 2 2 2 1 1 1 1
7 6 5 4 4 3 3 4 3 2 2 1 1 0 1 1 1 0 0 0 0 1 1 1 1 2 2 2 2 2 1 1 1 2 1 1 2 2 2 2 2 2 3
5 5 4 4 4 3 4 4 4 4 3 2 1 1 0 1 1 1 0 0 0 0 0 1 1 1 1 2 1 2 2 2 2 2 2 1 1 2 3 3 2 2 3
Wind_Direction
46 66 95 87 84 83 81 81 83 82 83 84 89 89 89 91 92 91 93 96 97 98 99 100 100 101 103 106 108 109 109 110 110 110 111 111 111 110 109 108 108 109 112
139 103 102 93 88 85 83 83 85 84 83 85 90 92 91 91 92 92 93 95 97 100 102 102 102 101 103 106 108 108 109 110 110 110 110 111 112 112 111 111 112 114 114
113 94 103 99 93 89 86 86 88 87 86 87 90 92 92 92 92 92 93 94 95 97 99 100 101 102 103 105 106 106 106 107 108 108 105 103 112 114 114 114 115 115 115
117 101 111 106 98 93 89 89 90 91 90 89 90 91 93 92 93 93 93 94 94 96 98 98 100 102 104 106 107 108 109 109 110 107 97 101 111 117 117 118 117 117 117
111 103 125 111 104 98 93 91 92 93 94 92 92 90 90 92 93 95 96 96 96 97 99 97 99 101 104 106 108 111 114 113 110 101 95 94 103 121 122 122 122 122 121
107 101 128 116 109 103 98 96 96 96 96 95 95 93 92 91 92 96 97 97 98 97 98 98 98 100 102 105 108 110 113 115 107 103 100 102 110 124 125 125 126 126 125
115 105 125 119 114 108 104 100 99 99 98 98 97 95 94 94 92 94 97 98 100 99 98 97 98 99 101 102 106 112 117 120 114 113 112 112 120 128 129 127 129 130 129
120 104 107 121 119 115 110 106 103 101 101 100 100 98 96 95 94 94 97 100 101 100 99 99 99 98 102 103 106 116 124 126 125 126 123 125 136 136 135 134 133 134 135
99 88 67 82 105 117 117 111 109 107 104 103 104 104 103 100 98 97 95 98 100 99 100 101 99 97 101 105 107 121 128 128 125 131 136 135 145 144 142 141 140 140 141
93 83 75 66 61 64 89 119 116 113 110 105 106 105 102 98 97 97 94 98 99 98 99 98 97 96 100 106 111 119 126 125 127 132 134 151 155 153 151 150 150 149 148
155 123 108 92 76 61 56 119 106 108 102 97 95 99 83 55 54 69 90 98 99 98 96 90 90 93 93 97 113 123 119 123 134 139 146 161 164 163 161 160 160 159 159
191 196 184 167 152 122 121 75 46 53 61 61 56 60 61 53 36 57 50 79 88 90 91 86 82 82 78 72 104 116 118 137 142 152 169 172 174 173 170 169 169 170 168
194 197 189 191 188 178 108 107 71 55 56 53 57 65 68 54 35 38 31 29 39 53 50 54 56 62 74 81 90 118 140 147 156 168 179 180 180 179 176 176 177 178 179
185 201 196 189 191 197 181 149 128 114 104 89 44 102 104 78 39 33 33 16 28 43 52 51 55 60 74 96 122 143 156 162 170 176 189 188 189 189 188 188 189 189 188
191 200 194 186 188 190 179 191 165 180 177 183 199 192 167 161 188 358 7 349 345 50 76 61 51 53 58 93 145 164 174 180 183 184 196 201 198 198 200 200 199 200 199
198 198 190 190 191 185 180 190 197 193 185 178 211 210 184 179 188 190 243 298 298 270 191 170 176 16 334 129 187 181 184 187 190 191 202 212 209 205 207 208 207 208 208
196 191 189 192 186 185 186 195 202 204 186 196 217 211 194 187 190 190 201 234 255 252 234 204 220 41 270 166 195 195 189 196 196 202 206 211 215 216 216 218 217 216 216
182 185 195 192 177 180 177 184 188 187 184 205 205 204 205 197 192 181 197 237 247 216 192 204 172 65 340 350 291 243 200 199 206 211 213 211 212 221 226 226 225 223 226
177 178 183 181 169 172 169 169 166 155 171 208 203 208 213 197 186 178 201 227 202 174 217 229 159 169 228 257 242 251 219 214 217 213 214 218 217 220 227 235 235 232 233
169 171 174 167 162 152 137 116 87 78 100 216 214 223 219 206 187 177 194 209 168 162 228 212 184 163 184 202 280 48 36 221 209 212 221 221 224 227 226 232 239 242 241
162 174 179 169 165 146 134 141 144 177 215 234 240 232 219 211 190 176 190 184 172 191 214 194 166 155 163 131 94 37 12 30 165 234 231 213 224 229 218 222 229 235 251
178 189 191 189 180 172 158 156 156 151 170 187 230 282 221 203 196 189 184 197 189 186 191 174 161 156 185 152 140 130 343 348 360 355 54 161 149 112 117 159 200 211 247
189 196 198 195 188 179 161 126 98 74 53 51 27 326 317 224 181 175 187 197 210 194 209 207 189 181 194 202 168 154 163 217 301 10 39 70 74 72 65 66 79 88 117
198 194 192 186 181 175 164 161 162 168 180 204 197 223 348 358 328 155 196 205 211 207 222 227 194 190 184 207 208 203 185 162 167 202 30 59 71 65 53 40 44 56 68
187 182 182 171 172 169 165 165 160 162 171 149 111 58 1 359 356 327 191 197 213 213 208 201 176 180 189 192 189 179 177 146 159 170 185 94 70 54 53 53 47 52 60
172 170 167 165 176 172 165 160 162 165 165 155 157 168 310 350 349 348 30 90 127 170 201 195 174 171 182 179 182 177 168 160 176 171 180 168 113 71 56 55 51 51 59